Weather History for Hailey, ID

Change the Weather History Date:

Friday, July 5, 2013

  Actual Average Record
Temperature  
Mean Temperature 68 °F -  
Max Temperature 82 °F 81 °F 95 °F (2007)
Min Temperature 55 °F 50 °F 39 °F (1999)
Cooling Degree Days 4    
Growing Degree Days 18 (Base 50)    
Moisture  
Dew Point 48 °F    
Average Humidity 54    
Maximum Humidity 72    
Minimum Humidity 28    
Precipitation  
Precipitation 0.00 in - - ()
Sea Level Pressure  
Sea Level Pressure 29.96 in    
Wind  
Wind Speed 8 mph (South)    
Max Wind Speed 15 mph    
Max Gust Speed 29 mph    
Visibility 10 miles    
Events Rain , Thunderstorm    
Averages and records for this station are not official NWS values.
T = Trace of Precipitation, MM = Missing Value Source: NWS Daily Summary

Daily Weather History Graph

Daily Weather History Graph

Search for Another Location

Airport:

Trip Planner

Search our weather history database for the weather conditions in past years. The results will help you decide how hot, cold, wet, or windy it might be!

Date:

Astronomy

Jul. 05, 2013 Rise Set
Actual Time 6:02 AM MDT 9:20 PM MDT
Civil Twilight 5:27 AM MDT 9:56 PM MDT
Nautical Twilight 4:41 AM MDT 10:41 PM MDT
Astronomical Twilight 3:44 AM MDT 11:38 PM MDT
Moon 4:06 AM MDT (7/5) 7:17 PM MDT (7/5)
Length of Visible Light 16h 28m
Length of Day
15h 18m
Waning Crescent, 6% of the Moon is Illuminated
Jul 5
Waning Crescent
Jul 8
New
Jul 15
First Quarter
Jul 22
Full
Jul 29
Last Quarter

Hourly Weather History & Observations

Time (MDT) Temp. Dew Point Humidity Pressure Visibility Wind Dir Wind Speed Gust Speed Precip Events Conditions
12:15 AM 68.0 °F 46.4 °F 46% 29.96 in 10.0 mi SE 3.5 mph - N/A   Clear
12:35 AM 64.4 °F 48.2 °F 56% 29.97 in 10.0 mi SE 12.7 mph - N/A   Clear
12:55 AM 66.2 °F 48.2 °F 52% 29.97 in 10.0 mi SSE 9.2 mph - N/A   Clear
1:15 AM 64.4 °F 46.4 °F 52% 29.98 in 10.0 mi South 5.8 mph - N/A   Clear
1:35 AM 62.6 °F 50.0 °F 63% 29.98 in 10.0 mi SSE 4.6 mph - N/A   Clear
1:55 AM 62.6 °F 48.2 °F 59% 29.98 in 10.0 mi SE 8.1 mph - N/A   Clear
2:15 AM 64.4 °F 46.4 °F 52% 29.98 in 10.0 mi SE 11.5 mph - N/A   Clear
2:35 AM 64.4 °F 48.2 °F 56% 29.98 in 10.0 mi SE 11.5 mph - N/A   Clear
2:55 AM 64.4 °F 48.2 °F 56% 29.98 in 10.0 mi SSE 11.5 mph - N/A   Mostly Cloudy
3:15 AM 60.8 °F 50.0 °F 68% 29.98 in 10.0 mi SSE 9.2 mph - N/A   Scattered Clouds
3:35 AM 62.6 °F 48.2 °F 59% 29.97 in 10.0 mi SE 5.8 mph - N/A   Clear
3:55 AM 62.6 °F 48.2 °F 59% 29.97 in 10.0 mi SE 4.6 mph - N/A   Clear
4:15 AM 62.6 °F 50.0 °F 63% 29.97 in 10.0 mi NW 6.9 mph - N/A   Clear
4:35 AM 60.8 °F 48.2 °F 63% 29.97 in 10.0 mi WNW 5.8 mph - N/A   Clear
4:55 AM 59.0 °F 48.2 °F 67% 29.97 in 10.0 mi NW 6.9 mph - N/A   Clear
5:15 AM 59.0 °F 46.4 °F 63% 29.97 in 10.0 mi WNW 6.9 mph - N/A   Clear
5:35 AM 59.0 °F 46.4 °F 63% 29.98 in 10.0 mi NW 5.8 mph - N/A   Clear
5:55 AM 57.2 °F 46.4 °F 67% 29.98 in 10.0 mi NW 8.1 mph - N/A   Clear
6:15 AM 57.2 °F 46.4 °F 67% 29.98 in 10.0 mi NW 9.2 mph - N/A   Clear
6:35 AM 55.4 °F 46.4 °F 72% 29.98 in 10.0 mi WNW 8.1 mph - N/A   Clear
6:47 AM 57.2 °F 46.4 °F 67% 29.98 in 10.0 mi West 9.2 mph - N/A   Clear
6:55 AM 55.4 °F 46.4 °F 72% 29.98 in 10.0 mi NW 9.2 mph - N/A   Clear
7:47 AM 60.8 °F 46.4 °F 59% 29.99 in 10.0 mi NW 11.5 mph - N/A   Clear
8:47 AM 64.4 °F 46.4 °F 52% 29.99 in 10.0 mi WNW 6.9 mph - N/A   Clear
9:50 AM 69.8 °F 48.2 °F 46% 29.99 in 10.0 mi SE 6.9 mph - N/A   Clear
10:47 AM 73.4 °F 48.2 °F 41% 29.98 in 10.0 mi ESE 9.2 mph - N/A   Partly Cloudy
11:47 AM 78.8 °F 46.4 °F 32% 29.97 in 10.0 mi East 9.2 mph - N/A   Partly Cloudy
12:47 PM 80.6 °F 51.8 °F 37% 29.95 in 10.0 mi SE 9.2 mph - N/A   Scattered Clouds
1:47 PM 82.4 °F 50.0 °F 32% 29.93 in 10.0 mi South 9.2 mph - N/A   Scattered Clouds
2:55 PM 80.6 °F 48.2 °F 32% 29.96 in 10.0 mi West 15.0 mph 28.8 mph N/A Rain , Thunderstorm Light Thunderstorms and Rain
3:15 PM 78.8 °F 42.8 °F 28% 29.95 in 10.0 mi West 13.8 mph - N/A   Mostly Cloudy
4:47 PM 78.8 °F 46.4 °F 32% 29.92 in 10.0 mi WSW 10.4 mph - N/A   Mostly Cloudy
5:47 PM 78.8 °F 46.4 °F 32% 29.89 in 10.0 mi South 8.1 mph - N/A   Mostly Cloudy
6:47 PM 78.8 °F 46.4 °F 32% 29.87 in 10.0 mi SSW 5.8 mph - N/A   Scattered Clouds
7:55 PM 75.2 °F 53.6 °F 47% 29.88 in 10.0 mi South 4.6 mph - N/A   Partly Cloudy
8:50 PM 69.8 °F 55.4 °F 60% 29.90 in 10.0 mi ESE 4.6 mph - N/A   Partly Cloudy
9:47 PM 71.6 °F 48.2 °F 43% 29.90 in 10.0 mi Calm Calm - N/A   Partly Cloudy
10:47 PM 66.2 °F 48.2 °F 52% 29.94 in 10.0 mi SE 5.8 mph - N/A   Clear
11:15 PM 64.4 °F 50.0 °F 59% 29.95 in 10.0 mi SE 5.8 mph - N/A   Clear
11:35 PM 62.6 °F 51.8 °F 68% 29.96 in 10.0 mi SE 5.8 mph - N/A   Clear
11:55 PM 60.8 °F 51.8 °F 72% 29.96 in 10.0 mi SSE 8.1 mph - N/A   Clear